• Em Portugal
  • Lista de países
  • Para 7 dias
  • Temperatura da água
  • Mapas de satélite
  • Mapa do tempo
  • Widgets de tempo
  • user-avatar
    Iniciar Sessão

    Previsão horária em Brusbeno

    Hoje, 25 Maio, Sexta-feira

    Tempo Temperatura Precipitação Vento Pressão Humidade
    00:00 +17°C° 0 mm 2 m/s 765 mmHg 86%
    01:00 +17°C° 0 mm 2 m/s 765 mmHg 87%
    02:00 +16°C° 0 mm 2 m/s 765 mmHg 88%
    03:00 +16°C° 0 mm 3 m/s 765 mmHg 88%
    04:00 +16°C° 0 mm 3 m/s 765 mmHg 88%
    05:00 +16°C° 0 mm 3 m/s 765 mmHg 87%
    06:00 +16°C° 0 mm 3 m/s 766 mmHg 87%
    07:00 +16°C° 0 mm 3 m/s 766 mmHg 86%
    08:00 +18°C° 0 mm 4 m/s 766 mmHg 77%
    09:00 +20°C° 0 mm 4 m/s 766 mmHg 69%
    10:00 +22°C° 0 mm 5 m/s 766 mmHg 62%
    11:00 +23°C° 0,1 mm 5 m/s 766 mmHg 59%
    12:00 +25°C° 0,1 mm 5 m/s 765 mmHg 55%
    13:00 +25°C° 0,1 mm 5 m/s 765 mmHg 52%
    14:00 +25°C° 0,1 mm 5 m/s 765 mmHg 55%
    15:00 +23°C° 0,1 mm 5 m/s 765 mmHg 58%
    16:00 +23°C° 0,1 mm 5 m/s 765 mmHg 62%
    17:00 +21°C° 0,1 mm 5 m/s 766 mmHg 68%
    18:00 +20°C° 0,1 mm 5 m/s 766 mmHg 74%
    19:00 +19°C° 0,1 mm 5 m/s 767 mmHg 79%
    20:00 +19°C° 0,3 mm 4 m/s 767 mmHg 81%
    21:00 +18°C° 0,3 mm 4 m/s 767 mmHg 83%
    22:00 +18°C° 0,3 mm 4 m/s 768 mmHg 84%
    23:00 +18°C° 0,5 mm 4 m/s 768 mmHg 85%

    Amanhã, 26 Maio, Sábado

    Tempo Temperatura Precipitação Vento Pressão Humidade
    00:00 +18°C° 0,5 mm 4 m/s 767 mmHg 86%
    01:00 +17°C° 0,5 mm 4 m/s 767 mmHg 87%
    02:00 +17°C° 0,4 mm 4 m/s 767 mmHg 88%
    03:00 +17°C° 0,4 mm 4 m/s 767 mmHg 88%
    04:00 +17°C° 0,4 mm 4 m/s 767 mmHg 88%
    05:00 +17°C° 0,1 mm 4 m/s 768 mmHg 88%
    06:00 +17°C° 0,1 mm 4 m/s 768 mmHg 88%
    07:00 +17°C° 0,1 mm 4 m/s 768 mmHg 88%
    08:00 +17°C° 0 mm 5 m/s 768 mmHg 78%
    09:00 +20°C° 0 mm 5 m/s 769 mmHg 67%
    10:00 +22°C° 0 mm 6 m/s 769 mmHg 57%
    11:00 +22°C° 0 mm 6 m/s 768 mmHg 55%
    12:00 +23°C° 0 mm 6 m/s 768 mmHg 53%
    13:00 +23°C° 0 mm 6 m/s 767 mmHg 51%
    14:00 +22°C° 0 mm 6 m/s 767 mmHg 52%
    15:00 +22°C° 0 mm 5 m/s 767 mmHg 54%
    16:00 +21°C° 0 mm 5 m/s 767 mmHg 56%
    17:00 +20°C° 0,1 mm 5 m/s 768 mmHg 63%
    18:00 +19°C° 0,1 mm 4 m/s 768 mmHg 70%
    19:00 +17°C° 0,1 mm 4 m/s 769 mmHg 76%
    20:00 +17°C° 0,1 mm 4 m/s 769 mmHg 79%
    21:00 +15°C° 0,1 mm 4 m/s 769 mmHg 81%
    22:00 +15°C° 0,1 mm 4 m/s 769 mmHg 83%
    23:00 +15°C° 0,1 mm 4 m/s 769 mmHg 84%

    Depois de amanhã, 27 Maio, Domingo

    Tempo Temperatura Precipitação Vento Pressão Humidade
    00:00 +15°C° 0,1 mm 4 m/s 769 mmHg 85%
    01:00 +14°C° 0,1 mm 4 m/s 768 mmHg 86%
    02:00 +14°C° 0,1 mm 4 m/s 768 mmHg 86%
    03:00 +14°C° 0,1 mm 4 m/s 768 mmHg 86%
    04:00 +14°C° 0,1 mm 4 m/s 768 mmHg 86%
    05:00 +14°C° 0,1 mm 4 m/s 768 mmHg 85%
    06:00 +14°C° 0,1 mm 4 m/s 768 mmHg 84%
    07:00 +15°C° 0,1 mm 4 m/s 768 mmHg 83%
    08:00 +18°C° 0,1 mm 4 m/s 768 mmHg 75%
    09:00 +20°C° 0,1 mm 4 m/s 768 mmHg 67%
    10:00 +22°C° 0,1 mm 5 m/s 768 mmHg 58%
    11:00 +22°C° 0,1 mm 5 m/s 768 mmHg 59%
    12:00 +22°C° 0,1 mm 5 m/s 767 mmHg 59%
    13:00 +23°C° 0,1 mm 5 m/s 766 mmHg 59%
    14:00 +22°C° 0,2 mm 4 m/s 766 mmHg 63%
    15:00 +21°C° 0,2 mm 4 m/s 766 mmHg 68%
    16:00 +20°C° 0,2 mm 4 m/s 766 mmHg 73%
    17:00 +19°C° 0,2 mm 4 m/s 766 mmHg 78%
    18:00 +19°C° 0,2 mm 3 m/s 767 mmHg 83%
    19:00 +18°C° 0,2 mm 3 m/s 767 mmHg 87%
    20:00 +17°C° 0,1 mm 3 m/s 767 mmHg 88%
    21:00 +17°C° 0,1 mm 3 m/s 768 mmHg 88%
    22:00 +17°C° 0,1 mm 3 m/s 768 mmHg 89%
    23:00 +17°C° 0,1 mm 3 m/s 767 mmHg 89%

    28 Maio, Segunda-feira

    Tempo Temperatura Precipitação Vento Pressão Humidade
    00:00 +16°C° 0,1 mm 3 m/s 767 mmHg 89%
    01:00 +16°C° 0,1 mm 3 m/s 767 mmHg 89%
    02:00 +16°C° 0 mm 3 m/s 767 mmHg 89%
    03:00 +16°C° 0 mm 3 m/s 766 mmHg 89%
    04:00 +16°C° 0 mm 3 m/s 766 mmHg 88%
    05:00 +14°C° 0 mm 3 m/s 766 mmHg 88%
    06:00 +14°C° 0 mm 3 m/s 767 mmHg 89%
    07:00 +14°C° 0 mm 3 m/s 767 mmHg 89%
    08:00 +17°C° 0,1 mm 3 m/s 767 mmHg 83%
    09:00 +19°C° 0,1 mm 3 m/s 767 mmHg 77%
    10:00 +20°C° 0,1 mm 3 m/s 767 mmHg 71%
    11:00 +21°C° 0,2 mm 3 m/s 766 mmHg 70%
    12:00 +21°C° 0,2 mm 3 m/s 766 mmHg 69%
    13:00 +21°C° 0,2 mm 3 m/s 765 mmHg 67%
    14:00 +21°C° 0,3 mm 3 m/s 765 mmHg 69%
    15:00 +21°C° 0,3 mm 3 m/s 765 mmHg 70%
    16:00 +21°C° 0,3 mm 3 m/s 765 mmHg 72%
    17:00 +20°C° 0,2 mm 3 m/s 765 mmHg 77%
    18:00 +19°C° 0,2 mm 3 m/s 765 mmHg 82%
    19:00 +18°C° 0,2 mm 2 m/s 766 mmHg 87%
    20:00 +18°C° 0,3 mm 2 m/s 766 mmHg 87%
    21:00 +17°C° 0,3 mm 2 m/s 766 mmHg 88%
    22:00 +17°C° 0,3 mm 2 m/s 766 mmHg 88%
    23:00 +17°C° 0,4 mm 2 m/s 766 mmHg 88%

    29 Maio, Terça-feira

    Tempo Temperatura Precipitação Vento Pressão Humidade
    00:00 +17°C° 0,4 mm 2 m/s 765 mmHg 89%
    01:00 +16°C° 0,4 mm 2 m/s 765 mmHg 90%
    02:00 +16°C° 0,4 mm 2 m/s 765 mmHg 90%
    03:00 +16°C° 0,4 mm 2 m/s 765 mmHg 90%
    04:00 +16°C° 0,4 mm 2 m/s 765 mmHg 90%
    05:00 +16°C° 0,5 mm 2 m/s 765 mmHg 89%
    06:00 +16°C° 0,5 mm 2 m/s 765 mmHg 88%
    07:00 +16°C° 0,5 mm 2 m/s 765 mmHg 86%
    08:00 +18°C° 0,3 mm 2 m/s 765 mmHg 77%
    09:00 +20°C° 0,3 mm 2 m/s 765 mmHg 68%
    10:00 +23°C° 0,3 mm 2 m/s 765 mmHg 59%
    11:00 +24°C° 0,3 mm 2 m/s 764 mmHg 57%
    12:00 +25°C° 0,3 mm 2 m/s 764 mmHg 54%
    13:00 +26°C° 0,3 mm 2 m/s 763 mmHg 51%
    14:00 +25°C° 0,1 mm 2 m/s 763 mmHg 56%
    15:00 +24°C° 0,1 mm 2 m/s 763 mmHg 60%
    16:00 +23°C° 0,1 mm 2 m/s 763 mmHg 65%
    17:00 +21°C° 0 mm 2 m/s 763 mmHg 71%
    18:00 +19°C° 0 mm 2 m/s 763 mmHg 78%
    19:00 +19°C° 0 mm 1 m/s 764 mmHg 85%
    20:00 +18°C° 0 mm 1 m/s 764 mmHg 86%
    21:00 +18°C° 0 mm 1 m/s 764 mmHg 87%
    22:00 +16°C° 0 mm 1 m/s 764 mmHg 88%
    23:00 +16°C° 0 mm 1 m/s 764 mmHg 89%

    30 Maio, Quarta-feira

    Tempo Temperatura Precipitação Vento Pressão Humidade
    00:00 +16°C° 0 mm 1 m/s 764 mmHg 90%
    01:00 +15°C° 0 mm 1 m/s 763 mmHg 91%
    02:00 +15°C° 0 mm 2 m/s 763 mmHg 90%
    03:00 +15°C° 0 mm 2 m/s 763 mmHg 90%
    04:00 +15°C° 0 mm 2 m/s 763 mmHg 90%
    05:00 +14°C° 0 mm 2 m/s 763 mmHg 89%
    06:00 +14°C° 0 mm 2 m/s 763 mmHg 88%
    07:00 +14°C° 0 mm 2 m/s 763 mmHg 88%
    08:00 +17°C° 0 mm 2 m/s 763 mmHg 76%
    09:00 +20°C° 0 mm 3 m/s 763 mmHg 64%
    10:00 +22°C° 0 mm 3 m/s 763 mmHg 53%
    11:00 +25°C° 0 mm 4 m/s 762 mmHg 48%
    12:00 +26°C° 0 mm 4 m/s 762 mmHg 43%
    13:00 +27°C° 0 mm 4 m/s 761 mmHg 38%
    14:00 +26°C° 0 mm 5 m/s 761 mmHg 40%
    15:00 +23°C° 0 mm 5 m/s 761 mmHg 42%
    16:00 +22°C° 0 mm 5 m/s 761 mmHg 44%
    17:00 +20°C° 0 mm 6 m/s 761 mmHg 40%
    18:00 +19°C° 0 mm 6 m/s 762 mmHg 37%
    19:00 +16°C° 0 mm 7 m/s 763 mmHg 34%
    20:00 +15°C° 0 mm 7 m/s 763 mmHg 33%
    21:00 +14°C° 0 mm 7 m/s 763 mmHg 32%
    22:00 +12°C° 0 mm 7 m/s 764 mmHg 32%
    23:00 +11°C° 0 mm 6 m/s 764 mmHg 33%
    Mostrar mais